Location: Bambrugge
(50.9212°N, 3.9299°E)
Time: 14:58:51
(UTC+00:00)

Cosmos 407 Rocket - Pass Details

Date: 23 May 2024
Orbit: 742 x 783 km, 74.0° (Epoch: 18 June)

Event Time Altitude Azimuth Distance (km) Brightness Sun altitude
Exits shadow 00:44:30 24° 229° (SW) 1,584 4.7 -17.1°
Maximum altitude 00:47:37 56° 299° (WNW) 920 3.9 -17.0°
Drops below altitude 10° 00:52:47 10° 18° (NNE) 2,315 7.3 -16.7°
Sets 00:55:13 0° 23° (NNE) 3,238 8.5 -16.6°
